Flag for U.S.A. Weather past 2 weeks in Sevierville, Tennessee, U.S.A.

Now
77 °F

Scattered clouds.


Feels Like: 78 °F
Forecast: 61 / 78 °F
Wind: 6 mph from West

Location: McGhee Tyson Airport

Current Time: Sep 17, 2014 at 6:03:09 PM

Latest Report: Sep 17, 2014 at 4:53 PM


Visibility: 10 mi

Pressure: 29.90 "Hg

Humidity: 39%

Dew point: 50 °F

Location of SeviervilleLocation

Historic Weather in Sevierville — Graph

°F

Sevierville temperature yesterday

Maximum temperature yesterday: 80 °F (at 2:53 PM)
Minimum temperature yesterday: 68 °F (at 2:53 AM)
Average temperature yesterday: 73 °F

Past Weeks' High & Low Weather Summary

 TemperatureHumidityPressure
High89 °F (Sep 11, 3:53 PM)100% (Sep 5, 2:53 AM)30.21 "Hg (Sep 5, 2:53 AM)
Low59 °F (Sep 14, 6:53 AM)39% (Sep 17, 4:53 PM)29.90 "Hg (Sep 17, 3:53 PM)
Average74 °F80%30.05 "Hg
* Reported Sep 2 4:53 PM — Sep 17 4:53 PM, Sevierville, Weather by CustomWeather, © 2014

Note: Actual official high and low records may vary slightly from our data, if they occured in-between our weather recording intervals... More about our weather records

Advertising

Sevierville weather history for previous 24 hours

 ConditionsComfort  
Time TempWeatherWind HumidityBarometerVisibility
4:53 PM
Sep 17
77 °FScattered clouds.6 mph39%29.90 "Hg10 mi
3:53 PM77 °FScattered clouds.6 mph45%29.90 "Hg10 mi
2:53 PM75 °FScattered clouds.No wind52%29.93 "Hg10 mi
1:53 PM74 °FScattered clouds.5 mph52%29.95 "Hg10 mi
12:53 PM72 °FScattered clouds.6 mph57%29.96 "Hg10 mi
11:53 AM70 °FScattered clouds.5 mph64%29.96 "Hg10 mi
10:53 AM65 °FPartly sunny.3 mph78%29.97 "Hg7 mi
9:53 AM64 °FPartly sunny.6 mph78%29.99 "Hg10 mi
8:53 AM62 °FPartly sunny.6 mph83%30.00 "Hg10 mi
7:53 AM60 °FPassing clouds.3 mph90%29.99 "Hg10 mi
6:53 AM60 °FPartly cloudy.6 mph90%29.98 "Hg10 mi
5:53 AM61 °FMostly cloudy.6 mph90%29.98 "Hg10 mi
4:53 AM62 °FOvercast.5 mph90%29.98 "Hg10 mi
3:53 AM63 °FOvercast.5 mph87%29.98 "Hg10 mi
2:53 AM63 °FMostly cloudy.5 mph87%29.98 "Hg10 mi
1:53 AM65 °FOvercast.5 mph81%29.99 "Hg10 mi
12:53 AM67 °FOvercast.6 mph79%30.00 "Hg10 mi
11:53 PM
Sep 16
68 °FPassing clouds.No wind82%30.01 "Hg10 mi
10:53 PM68 °FPartly cloudy.No wind78%30.01 "Hg10 mi
8:53 PM70 °FOvercast.8 mph79%29.99 "Hg10 mi
7:53 PM72 °FPartly sunny.6 mph76%29.98 "Hg10 mi
6:53 PM74 °FPartly sunny.7 mph71%29.98 "Hg10 mi
Weather by CustomWeather, © 2014

See weather overviewHow to use our weather pages